Statesville, NC

8:41 PM EDT on August 17, 2017 (GMT -0400)
Statesville Municipal

Weather History for KSVH - December, 2013

Change the Weather History Date:

Thursday, December 19, 2013

  Actual Average (KHKY) Record (KHKY)
Temperature  
Mean Temperature 44 °F -  
Max Temperature 63 °F 51 °F 76 °F (1984)
Min Temperature 25 °F 29 °F 10 °F (1950)
Degree Days  
Heating Degree Days 21    
Moisture  
Dew Point 21 °F    
Average Humidity 47    
Maximum Humidity 82    
Minimum Humidity 18    
Precipitation  
Precipitation 0.00 in - - ()
Sea Level Pressure  
Sea Level Pressure 30.24 in    
Wind  
Wind Speed 3 mph (SSW)    
Max Wind Speed 13 mph    
Max Gust Speed 23 mph    
Visibility 10 miles    
Events      
Averages and records for this station are not official NWS values.
T = Trace of Precipitation, MM = Missing Value Source: NWS Daily Summary

Daily Weather History Graph

Daily Weather History Graph

Search for Another Location

Airport or City:

Trip Planner

Search our weather history database for the weather conditions in past years. The results will help you decide how hot, cold, wet, or windy it might be!

Date:

Astronomy

Dec. 19, 2013 Rise Set
Actual Time 7:29 AM EST 5:13 PM EST
Civil Twilight 7:00 AM EST 5:41 PM EST
Nautical Twilight 6:28 AM EST 6:13 PM EST
Astronomical Twilight 5:57 AM EST 6:44 PM EST
Moon 7:33 PM EST (12/19) 8:50 AM EST (12/19)
Length of Visible Light 10h 41m
Length of Day
9h 44m
Waning Gibbous, 95% of the Moon is Illuminated
Dec 19
Waning Gibbous
Dec 25
Last Quarter
Jan 1
New
Jan 7
First Quarter
Jan 15
Full

Hourly Weather History & Observations

Time (EST) Temp. Windchill Dew Point Humidity Pressure Visibility Wind Dir Wind Speed Gust Speed Precip Events Conditions
12:15 AM 28.8 °F 25.0 °F 19.4 °F 68% 30.26 in 10.0 mi SW 3.5 mph - N/A   Clear
12:35 AM 29.8 °F - 19.4 °F 65% 30.25 in 10.0 mi Calm Calm - N/A   Clear
12:55 AM 30.9 °F 27.5 °F 17.8 °F 58% 30.25 in 10.0 mi West 3.5 mph - N/A   Clear
1:15 AM 30.6 °F - 18.3 °F 60% 30.25 in 10.0 mi Calm Calm - N/A   Clear
1:35 AM 28.8 °F - 20.1 °F 70% 30.25 in 10.0 mi Calm Calm - N/A   Clear
1:55 AM 26.4 °F - 20.3 °F 78% 30.25 in 10.0 mi Calm Calm - N/A   Clear
2:15 AM 28.0 °F - 19.2 °F 70% 30.25 in 10.0 mi Calm Calm - N/A   Clear
2:35 AM 28.9 °F 25.2 °F 18.9 °F 66% 30.25 in 10.0 mi SSW 3.5 mph - N/A   Clear
2:55 AM 27.0 °F 23.0 °F 20.3 °F 76% 30.25 in 10.0 mi SSW 3.5 mph - N/A   Clear
3:15 AM 28.4 °F - 19.9 °F 71% 30.25 in 10.0 mi Calm Calm - N/A   Clear
3:35 AM 27.0 °F - 19.6 °F 74% 30.26 in 10.0 mi Calm Calm - N/A   Clear
3:55 AM 25.9 °F 21.7 °F 20.8 °F 81% 30.25 in 10.0 mi SSW 3.5 mph - N/A   Clear
4:15 AM 27.7 °F - 20.3 °F 74% 30.25 in 10.0 mi Calm Calm - N/A   Clear
4:35 AM 28.8 °F - 19.4 °F 68% 30.25 in 10.0 mi Calm Calm - N/A   Clear
4:55 AM 29.1 °F - 18.7 °F 65% 30.25 in 10.0 mi Calm Calm - N/A   Clear
5:15 AM 26.1 °F - 19.2 °F 75% 30.25 in 10.0 mi Calm Calm - N/A   Clear
5:35 AM 25.2 °F - 20.3 °F 82% 30.26 in 10.0 mi Calm Calm - N/A   Clear
5:55 AM 25.5 °F 21.3 °F 20.5 °F 81% 30.25 in 10.0 mi SW 3.5 mph - N/A   Clear
6:15 AM 27.9 °F - 20.3 °F 73% 30.26 in 10.0 mi Calm Calm - N/A   Clear
6:35 AM 27.5 °F - 19.6 °F 72% 30.26 in 10.0 mi Calm Calm - N/A   Clear
6:55 AM 27.0 °F 23.0 °F 19.6 °F 74% 30.27 in 10.0 mi WSW 3.5 mph - N/A   Clear
7:15 AM 25.2 °F - 19.6 °F 79% 30.27 in 10.0 mi Calm Calm - N/A   Clear
7:35 AM 28.6 °F - 19.6 °F 69% 30.27 in 10.0 mi Calm Calm - N/A   Clear
7:55 AM 28.6 °F - 19.6 °F 69% 30.28 in 10.0 mi Calm Calm - N/A   Clear
8:15 AM 27.5 °F 23.6 °F 20.5 °F 75% 30.28 in 10.0 mi SSW 3.5 mph - N/A   Clear
8:35 AM 30.2 °F 26.7 °F 21.6 °F 70% 30.28 in 10.0 mi WSW 3.5 mph - N/A   Clear
8:55 AM 33.1 °F - 21.4 °F 62% 30.28 in 10.0 mi Calm Calm - N/A   Clear
9:15 AM 35.2 °F 31.2 °F 21.6 °F 58% 30.29 in 10.0 mi SW 4.6 mph - N/A   Clear
9:35 AM 37.9 °F 33.5 °F 22.5 °F 54% 30.29 in 10.0 mi SW 5.8 mph - N/A   Clear
9:55 AM 41.2 °F 36.6 °F 23.0 °F 48% 30.29 in 10.0 mi SW 6.9 mph - N/A   Clear
10:15 AM 44.1 °F 38.6 °F 21.7 °F 41% 30.29 in 10.0 mi SW 10.4 mph - N/A   Clear
10:35 AM 46.4 °F 41.5 °F 21.7 °F 38% 30.29 in 10.0 mi SW 10.4 mph - N/A   Clear
10:55 AM 48.7 °F - 20.3 °F 33% 30.29 in 10.0 mi SW 10.4 mph - N/A   Clear
11:15 AM 51.3 °F - 19.6 °F 29% 30.28 in 10.0 mi SW 9.2 mph - N/A   Clear
11:35 AM 52.7 °F - 19.8 °F 27% 30.27 in 10.0 mi SW 5.8 mph - N/A   Clear
11:55 AM 54.9 °F - 21.6 °F 27% 30.26 in 10.0 mi SW 6.9 mph - N/A   Clear
12:15 PM 57.7 °F - 21.4 °F 24% 30.25 in 10.0 mi SSW 8.1 mph - N/A   Clear
12:35 PM 59.4 °F - 18.9 °F 21% 30.24 in 10.0 mi SSW 9.2 mph 16.1 mph N/A   Clear
12:55 PM 60.8 °F - 18.5 °F 19% 30.23 in 10.0 mi SW 9.2 mph 17.3 mph N/A   Clear
1:15 PM 62.1 °F - 18.7 °F 19% 30.22 in 10.0 mi SW 11.5 mph 19.6 mph N/A   Clear
1:35 PM 62.1 °F - 19.0 °F 19% 30.21 in 10.0 mi SW 12.7 mph 23.0 mph N/A   Clear
1:55 PM 61.9 °F - 18.9 °F 19% 30.20 in 10.0 mi SW 8.1 mph - N/A   Clear
2:15 PM 62.6 °F - 19.9 °F 19% 30.20 in 10.0 mi SSW 10.4 mph 18.4 mph N/A   Clear
2:35 PM 63.3 °F - 19.4 °F 18% 30.19 in 10.0 mi SSW 12.7 mph 19.6 mph N/A   Clear
2:55 PM 60.4 °F - 20.5 °F 21% 30.19 in 10.0 mi SSW 4.6 mph - N/A   Clear
3:15 PM 61.7 °F - 21.9 °F 22% 30.19 in 10.0 mi SSW 10.4 mph - N/A   Clear
3:35 PM 61.7 °F - 19.9 °F 20% 30.19 in 10.0 mi SW 8.1 mph - N/A   Clear
3:55 PM 59.5 °F - 20.8 °F 22% 30.20 in 10.0 mi South 3.5 mph - N/A   Clear
4:15 PM 59.0 °F - 20.8 °F 23% 30.20 in 10.0 mi South 4.6 mph - N/A   Clear
4:35 PM 58.1 °F - 21.0 °F 24% 30.20 in 10.0 mi South 5.8 mph - N/A   Clear
4:55 PM 57.7 °F - 21.0 °F 24% 30.21 in 10.0 mi SSW 4.6 mph - N/A   Clear
5:15 PM 56.7 °F - 21.6 °F 26% 30.21 in 10.0 mi SSW 5.8 mph - N/A   Clear
5:35 PM 55.9 °F - 21.7 °F 27% 30.21 in 10.0 mi SSW 4.6 mph - N/A   Clear
5:55 PM 54.9 °F - 22.1 °F 28% 30.22 in 10.0 mi SSW 4.6 mph - N/A   Clear
6:15 PM 54.3 °F - 22.6 °F 29% 30.22 in 10.0 mi South 5.8 mph - N/A   Clear
6:35 PM 53.6 °F - 22.8 °F 30% 30.22 in 10.0 mi SSW 4.6 mph - N/A   Clear
6:55 PM 53.2 °F - 23.0 °F 31% 30.22 in 10.0 mi SSW 5.8 mph - N/A   Clear
7:15 PM 53.1 °F - 23.0 °F 31% 30.22 in 10.0 mi SSW 5.8 mph - N/A   Clear
7:35 PM 52.3 °F - 23.0 °F 32% 30.22 in 10.0 mi SSW 4.6 mph - N/A   Clear
7:55 PM 51.3 °F - 23.4 °F 34% 30.22 in 10.0 mi SSW 4.6 mph - N/A   Clear
8:15 PM 51.1 °F - 23.7 °F 34% 30.22 in 10.0 mi SSW 4.6 mph - N/A   Clear
8:35 PM 50.0 °F - 24.1 °F 36% 30.21 in 10.0 mi SSW 3.5 mph - N/A   Clear
8:55 PM 48.9 °F - 24.4 °F 38% 30.22 in 10.0 mi SSW 4.6 mph - N/A   Clear
9:15 PM 48.6 °F - 24.4 °F 39% 30.22 in 10.0 mi SSW 4.6 mph - N/A   Clear
9:35 PM 47.7 °F - 24.6 °F 41% 30.22 in 10.0 mi SSW 3.5 mph - N/A   Clear
9:55 PM 47.1 °F - 25.5 °F 43% 30.22 in 10.0 mi SSW 5.8 mph - N/A   Clear
10:15 PM 47.1 °F - 25.7 °F 43% 30.23 in 10.0 mi SW 4.6 mph - N/A   Clear
10:35 PM 47.5 °F - 25.3 °F 42% 30.23 in 10.0 mi SSW 3.5 mph - N/A   Clear
10:55 PM 46.8 °F - 25.5 °F 43% 30.22 in 10.0 mi Calm Calm - N/A   Clear
11:15 PM 46.4 °F 45.2 °F 26.4 °F 46% 30.23 in 10.0 mi SW 3.5 mph - N/A   Clear
11:35 PM 46.9 °F - 26.4 °F 45% 30.22 in 10.0 mi SSW 4.6 mph - N/A   Clear
11:55 PM 46.0 °F 44.8 °F 26.6 °F 47% 30.22 in 10.0 mi SW 3.5 mph - N/A   Clear